Helicity
28 25 29 32 37 40 43 33 28 29 28 26 22 25 39 34 13 27 26 20 23 15 21 18 22 11 3 -0 -6 -5 -8 -1 -2
24 20 14 14 21 23 25 25 25 24 23 22 24 40 57 28 29 28 12 7 28 33 50 61 76 75 49 11 -0 -3 -4 -6 -10
16 13 8 6 5 2 9 9 7 10 16 19 26 53 54 37 34 11 20 29 42 42 59 60 58 72 84 89 95 98 86 72 74
16 10 6 1 -0 -2 3 6 5 13 21 27 33 57 47 40 33 34 45 54 49 48 54 55 88 84 86 97 102 111 112 119 112
21 7 3 6 2 3 4 10 14 20 26 36 47 51 40 57 56 45 37 50 55 68 84 102 97 94 95 92 87 94 102 110 128
24 12 7 11 10 9 11 15 16 19 34 55 66 56 65 74 57 46 53 62 81 93 114 107 108 112 106 107 99 103 114 118 127
22 15 19 17 14 16 23 27 27 27 47 64 77 67 80 76 58 43 50 59 110 124 114 120 121 112 106 103 99 99 99 105 110
27 17 16 14 10 14 22 33 43 43 51 91 99 87 79 66 64 70 94 97 145 132 97 117 117 106 90 89 93 89 84 83 98
31 31 26 21 12 20 25 35 58 91 116 112 115 100 78 68 64 67 68 141 158 116 102 109 108 102 90 83 85 87 88 82 89
58 38 40 23 22 34 32 50 83 106 122 123 127 108 89 77 70 77 130 138 136 120 113 111 104 102 98 84 85 86 87 87 85
68 47 36 42 41 49 67 106 117 133 116 133 124 109 99 85 83 89 109 123 113 105 103 102 97 95 92 85 81 82 87 94 92
76 74 64 73 82 128 161 166 150 154 130 124 109 97 78 78 91 91 102 110 113 101 97 94 93 93 91 95 97 90 83 90 95
103 119 118 145 181 203 198 190 189 151 125 96 92 101 82 79 79 87 88 86 92 93 86 90 95 95 108 112 105 88 87 94 95
158 160 195 210 226 210 212 200 157 123 108 94 109 107 88 77 72 71 68 59 68 71 87 95 98 98 102 98 101 103 92 95 97
216 241 261 267 280 251 219 204 174 124 107 119 151 129 92 66 59 56 57 56 70 78 81 89 79 89 89 89 95 102 98 95 87
284 313 310 293 280 234 221 222 175 163 146 151 166 140 96 58 43 68 76 75 89 97 92 86 86 81 69 71 81 98 88 89 88
339 369 336 305 317 272 231 220 203 174 175 155 159 142 95 67 114 94 92 101 127 132 123 102 86 77 71 69 70 86 86 81 89
343 395 387 361 351 294 253 243 197 176 202 197 151 148 82 75 108 112 140 150 160 163 140 118 114 99 87 86 92 82 72 75 82
403 426 470 433 378 349 289 243 198 200 194 202 177 180 84 58 56 95 136 178 178 156 117 129 131 151 132 138 135 114 100 95 100
476 482 488 467 415 361 322 263 229 206 191 199 198 133 127 119 119 112 136 159 163 132 152 132 161 170 167 148 158 161 133 109 101
Wind_Speed
22 22 22 22 22 23 24 23 23 24 26 26 26 28 32 35 31 28 31 35 36 36 38 39 36 35 35 34 34 34 35 36 36
23 22 21 21 21 21 22 23 23 25 26 26 27 29 33 34 29 30 33 35 39 37 38 40 42 41 43 34 36 36 36 37 40
22 22 22 22 22 21 22 23 24 25 26 26 28 31 33 33 30 31 33 36 38 39 39 40 41 39 40 40 41 42 41 38 40
22 22 22 23 23 23 23 24 24 25 26 28 29 31 32 32 30 33 34 36 38 38 39 39 39 41 40 40 41 42 41 42 42
20 20 21 21 22 22 23 23 24 25 27 29 31 33 33 29 31 33 36 36 37 37 37 39 40 39 40 41 42 42 42 42 43
19 19 19 20 20 21 21 22 23 25 27 30 33 33 31 29 32 35 37 37 35 36 38 39 39 39 41 42 43 43 44 45 46
15 16 16 17 18 19 20 21 22 24 28 32 33 33 30 31 34 36 38 36 33 37 39 40 40 41 42 44 45 44 45 46 48
11 12 13 14 15 17 19 20 22 25 24 31 31 32 32 32 35 38 38 37 34 36 40 41 42 42 43 44 45 45 45 46 48
6 8 9 11 13 15 19 21 23 26 26 28 31 33 33 34 36 38 37 33 34 36 39 40 41 43 44 45 45 46 46 47 48
3 4 7 8 11 14 17 21 23 27 29 32 33 34 33 33 34 36 35 33 34 36 39 40 42 44 45 46 47 47 48 49 50
3 3 7 9 10 13 18 17 23 29 32 34 34 34 33 32 32 33 32 32 34 36 39 41 43 44 46 47 49 50 49 50 51
5 4 6 9 10 11 15 20 26 32 35 36 35 34 35 32 29 29 30 31 33 35 39 42 44 46 50 49 52 51 50 53 53
6 6 6 6 7 8 13 21 28 32 32 35 35 35 38 35 28 28 29 31 33 35 39 42 46 50 52 54 55 53 54 56 56
10 9 6 2 6 10 15 22 26 29 32 35 35 36 37 35 30 29 31 31 33 36 40 43 47 52 55 56 58 59 58 59 58
14 12 8 6 9 14 17 19 26 28 32 37 39 35 35 30 27 29 32 34 35 38 42 45 50 54 57 59 61 63 60 59 61
15 13 10 9 10 12 14 21 26 32 33 36 39 38 35 33 27 31 33 36 38 40 45 50 54 56 58 59 62 65 63 62 64
17 15 14 12 12 12 13 20 27 33 38 37 40 43 39 37 37 36 38 41 39 42 50 56 59 60 59 60 64 65 65 64 66
20 16 16 15 14 14 16 19 23 29 38 37 38 44 42 43 42 39 39 40 41 47 56 60 63 66 65 65 65 66 66 67 70
24 20 18 17 17 18 17 19 24 27 30 34 38 40 38 45 51 43 40 43 46 56 60 66 67 64 65 66 67 68 68 70 74
30 25 21 20 19 19 20 25 26 28 28 37 36 38 40 40 45 54 50 49 52 63 62 66 62 63 63 68 70 73 76 79 82
Wind_Direction
36 40 40 37 35 36 35 28 23 15 8 10 8 2 357 352 356 19 17 9 6 5 2 357 358 358 355 352 351 350 346 344 342
43 43 43 40 38 33 29 25 17 14 10 6 3 2 356 354 17 16 9 6 0 6 8 4 4 4 358 356 350 346 344 340 335
41 43 44 44 40 36 30 27 22 17 12 5 359 356 355 360 15 11 6 2 2 359 2 0 359 1 356 354 353 356 357 351 346
51 50 49 47 43 39 36 34 26 19 13 6 359 355 353 356 2 358 358 1 2 2 358 1 2 358 353 350 348 345 344 343 342
55 51 50 46 42 40 35 31 25 18 11 1 352 348 348 1 359 357 356 360 3 3 3 1 359 2 359 349 345 345 345 343 340
62 60 55 52 48 43 37 28 19 10 1 353 346 349 359 359 353 351 353 357 2 2 358 357 358 354 354 352 348 345 342 340 338
58 59 58 53 48 45 37 24 14 3 354 347 349 353 359 354 351 351 351 355 2 358 356 353 353 349 347 344 342 342 342 340 337
49 41 42 38 37 35 32 25 13 359 353 347 349 352 353 352 349 348 349 352 358 358 355 353 351 347 343 342 340 341 343 343 340
34 38 33 25 27 23 15 9 7 2 356 352 349 348 348 348 347 347 350 356 356 355 354 354 353 349 343 340 339 340 341 341 339
16 24 21 14 10 6 4 357 2 360 355 346 343 343 347 348 349 350 353 355 355 352 351 350 349 347 342 338 337 338 339 339 338
234 304 330 338 348 351 350 360 353 349 348 344 346 346 348 350 351 352 354 355 354 352 350 348 345 344 342 338 337 336 337 337 336
209 250 306 327 338 350 2 357 349 343 341 340 342 344 343 347 353 355 356 356 354 352 350 347 344 341 338 337 335 335 335 334 334
240 259 287 332 360 7 354 347 343 341 341 337 341 343 339 343 348 351 352 353 353 350 346 343 340 338 335 333 333 334 332 330 330
264 272 276 296 329 337 338 340 343 340 339 338 341 342 342 340 342 345 344 349 350 347 345 342 339 335 334 333 330 328 327 327 327
266 271 251 279 310 324 333 338 342 343 339 337 337 342 345 351 349 341 340 341 345 343 340 339 335 333 332 330 328 327 326 326 325
256 255 245 271 291 308 325 333 332 334 340 338 338 339 341 341 353 343 338 338 340 340 334 333 331 331 330 330 328 327 325 324 323
246 235 243 262 289 301 314 324 326 328 332 333 334 330 331 332 335 335 333 331 340 339 334 331 331 329 329 328 327 326 325 324 323
246 240 245 258 275 284 302 317 324 324 330 333 333 330 327 331 333 332 333 335 336 335 331 329 329 328 327 326 326 325 324 323 321
254 256 255 262 279 287 298 314 319 323 327 334 335 334 333 325 324 332 333 332 331 328 328 326 328 330 330 329 327 326 324 322 320
260 262 264 270 284 290 299 309 315 322 325 327 330 331 332 331 326 323 327 329 327 326 327 328 330 332 333 331 328 325 323 320 318